Home   Weather   Tianjin   Past weeks
Flag for China

Past Weather in Tianjin, Tianjin Municipality, China — Yesterday and Last 2 Weeks

Now
77 °F

Clear.


Feels Like: 79 °F
Forecast: 88 / 74 °F
Wind: 6 mph from South

Location: Tianjin / Zhangguizhu

Current Time: Jul 16, 2019 at 2:19:18 am

Latest Report: Jul 16, 2019 at 1:30 am


Visibility: 10 mi

Pressure: 29.71 "Hg

Humidity: 79%

Dew Point: 70 °F

Location of TianjinLocation

Past Weather in Tianjin — Graph

°F

Tianjin Temperature Yesterday

Maximum temperature yesterday: 91 °F (at 2:00 pm)
Minimum temperature yesterday: 73 °F (at 4:00 am)
Average temperature yesterday: 82 °F

High & Low Weather Summary for the Past Weeks

 TemperatureHumidityPressure
High100 °F (Jul 4, 12:30 pm)100% (Jul 7, 10:30 pm)29.86 "Hg (Jul 7, 10:30 pm)
Low64 °F (Jul 7, 6:30 am)20% (Jul 3, 5:30 pm)29.30 "Hg (Jul 5, 5:00 pm)
Average80 °F67%29.65 "Hg
* Reported Jul 1 1:00 am — Jul 16 1:00 am, Tianjin. Weather by CustomWeather, © 2019

Note: Actual official high and low records may vary slightly from our data, if they occured in-between our weather recording intervals... More about our weather records

Advertising

Tianjin Weather History for the Previous 24 Hours

Scroll right to see more
 ConditionsComfort  
Time TempWeatherWind HumidityBarometerVisibility
1:00 am
Tue, Jul 16
77 °FClear.6 mph83%29.74 "Hg10 mi
12:30 am77 °FClear.6 mph83%29.74 "Hg10 mi
12:00 am77 °FClear.3 mph83%29.74 "Hg10 mi
11:30 pm
Mon, Jul 15
79 °FClear.3 mph74%29.74 "Hg10 mi
11:00 pm77 °FClear.3 mph79%29.74 "Hg10 mi
10:30 pm79 °FClear.6 mph79%29.71 "Hg10 mi
10:00 pm79 °FClear.3 mph79%29.71 "Hg10 mi
9:30 pm81 °FPassing clouds.6 mph70%29.71 "HgN/A
9:00 pm81 °FClear.1 mph70%29.71 "Hg10 mi
8:30 pm81 °FClear.6 mph70%29.71 "Hg10 mi
7:30 pm81 °FSunny.8 mph70%29.68 "Hg10 mi
7:00 pm82 °FSunny.8 mph62%29.68 "Hg10 mi
6:30 pm82 °FSunny.8 mph66%29.65 "Hg10 mi
6:00 pm84 °FSunny.10 mph62%29.65 "Hg10 mi
5:30 pm86 °FSunny.10 mph59%29.65 "Hg10 mi
5:00 pm86 °FSunny.13 mph55%29.65 "Hg10 mi
4:30 pm88 °FSunny.13 mph52%29.65 "Hg10 mi
4:00 pm88 °FSunny.13 mph55%29.65 "Hg10 mi
3:30 pm90 °FPassing clouds.10 mph55%29.65 "HgN/A
3:00 pm91 °FPassing clouds.8 mph49%29.65 "HgN/A
2:30 pm91 °FPassing clouds.8 mph49%29.65 "HgN/A
2:00 pm91 °FPassing clouds.6 mph49%29.65 "HgN/A
1:30 pm90 °FSunny.3 mph46%29.65 "Hg10 mi
1:00 pm90 °FPassing clouds.6 mph49%29.68 "HgN/A
12:30 pm90 °FPassing clouds.3 mph52%29.68 "HgN/A
12:00 pm90 °FPassing clouds.3 mph49%29.68 "HgN/A
11:30 am88 °FSunny.1 mph55%29.68 "Hg10 mi
11:00 am86 °FPassing clouds.3 mph59%29.68 "HgN/A
10:30 am88 °FSunny.1 mph55%29.68 "Hg10 mi
10:00 am86 °FPassing clouds.3 mph55%29.68 "HgN/A
9:30 am86 °FPassing clouds.3 mph55%29.68 "HgN/A
9:00 am82 °FClear.3 mph66%29.68 "Hg4 mi
8:30 am82 °FHaze.1 mph74%29.68 "Hg3 mi
8:00 am82 °FFog.1 mph74%29.68 "Hg3 mi
7:30 am79 °FFog.3 mph84%29.68 "Hg2 mi
7:00 am79 °FFog.3 mph79%29.68 "Hg2 mi
6:30 am77 °FFog.1 mph83%29.68 "Hg2 mi
6:00 am75 °FFog.1 mph89%29.65 "Hg2 mi
5:30 am73 °FFog.1 mph94%29.65 "Hg2 mi
5:00 am73 °FFog.1 mph94%29.65 "Hg2 mi
4:30 am73 °FFog.No wind94%29.65 "Hg2 mi
4:00 am73 °FFog.1 mph94%29.62 "Hg2 mi
3:30 am75 °FFog.1 mph89%29.62 "Hg2 mi
3:00 am75 °FFog.No wind89%29.62 "Hg3 mi
2:30 am75 °FFog.1 mph89%29.62 "Hg3 mi
2:00 am75 °FFog.1 mph89%29.62 "Hg3 mi
Weather by CustomWeather, © 2019

See weather overview